Time,TemperatureF,DewpointF,PressureIn,WindDirection,WindDirectionDegrees,WindSpeedMPH,WindSpeedGustMPH,Humidity,HourlyPrecipIn,Conditions,Clouds,dailyrainin,SoftwareType,DateUTC
2013-02-22 00:02:00,32.2,30.0,30.24,NE,56,2.0,4.0,92,0.12,,,0.13,weatherlink.com 1.10,2013-02-22 05:02:00,
2013-02-22 00:17:00,32.1,30.0,30.23,NNE,20,2.0,3.0,92,0.14,,,0.16,weatherlink.com 1.10,2013-02-22 05:17:00,
2013-02-22 00:32:00,32.1,30.0,30.23,NNE,17,1.0,3.0,92,0.13,,,0.17,weatherlink.com 1.10,2013-02-22 05:32:00,
2013-02-22 00:47:00,32.1,30.0,30.23,NNE,25,0.0,1.0,93,0.11,,,0.19,weatherlink.com 1.10,2013-02-22 05:47:00,
2013-02-22 01:03:00,32.0,30.0,30.23,NE,50,2.0,2.0,93,0.07,,,0.20,weatherlink.com 1.10,2013-02-22 06:03:00,
2013-02-22 01:18:00,32.1,31.0,30.23,NNE,23,0.0,1.0,94,0.05,,,0.21,weatherlink.com 1.10,2013-02-22 06:18:00,
2013-02-22 01:33:00,32.0,31.0,30.21,NNW,335,1.0,5.0,94,0.06,,,0.23,weatherlink.com 1.10,2013-02-22 06:33:00,
2013-02-22 01:48:00,31.9,30.0,30.18,NE,43,3.0,5.0,94,0.05,,,0.24,weatherlink.com 1.10,2013-02-22 06:48:00,
2013-02-22 02:03:00,32.2,31.0,30.19,North,4,0.0,3.0,95,0.04,,,0.24,weatherlink.com 1.10,2013-02-22 07:03:00,
2013-02-22 02:18:00,32.7,31.0,30.17,NE,43,3.0,3.0,94,0.07,,,0.28,weatherlink.com 1.10,2013-02-22 07:18:00,
2013-02-22 02:33:00,32.6,31.0,30.16,NE,47,4.0,5.0,95,0.07,,,0.30,weatherlink.com 1.10,2013-02-22 07:33:00,
2013-02-22 02:48:00,33.2,32.0,30.14,NE,37,2.0,3.0,95,0.06,,,0.30,weatherlink.com 1.10,2013-02-22 07:48:00,
2013-02-22 03:03:00,33.1,32.0,30.14,NE,44,2.0,4.0,95,0.06,,,0.30,weatherlink.com 1.10,2013-02-22 08:03:00,
2013-02-22 03:18:00,33.3,32.0,30.13,NE,34,1.0,3.0,96,0.02,,,0.00,weatherlink.com 1.10,2013-02-22 08:18:00,
2013-02-22 03:33:00,33.9,33.0,30.12,NNE,16,0.0,2.0,96,0.00,,,0.00,weatherlink.com 1.10,2013-02-22 08:33:00,
2013-02-22 03:48:00,34.2,33.0,30.12,NNE,13,0.0,1.0,96,0.00,,,0.00,weatherlink.com 1.10,2013-02-22 08:48:00,
2013-02-22 04:03:00,34.6,34.0,30.12,NNE,15,0.0,1.0,96,0.03,,,0.03,weatherlink.com 1.10,2013-02-22 09:03:00,
2013-02-22 04:18:00,34.9,34.0,30.12,North,357,0.0,1.0,96,0.05,,,0.05,weatherlink.com 1.10,2013-02-22 09:18:00,
2013-02-22 04:33:00,35.3,34.0,30.12,SSW,200,1.0,1.0,96,0.10,,,0.10,weatherlink.com 1.10,2013-02-22 09:33:00,
2013-02-22 04:48:00,34.9,34.0,30.12,NNE,33,0.0,3.0,96,0.10,,,0.10,weatherlink.com 1.10,2013-02-22 09:48:00,
2013-02-22 05:03:00,35.3,34.0,30.11,SSE,165,0.0,1.0,96,0.07,,,0.10,weatherlink.com 1.10,2013-02-22 10:03:00,
2013-02-22 05:18:00,36.2,36.0,30.11,ENE,60,0.0,2.0,97,0.05,,,0.10,weatherlink.com 1.10,2013-02-22 10:18:00,
2013-02-22 05:33:00,36.3,36.0,30.11,SSW,203,1.0,1.0,97,0.00,,,0.10,weatherlink.com 1.10,2013-02-22 10:33:00,
2013-02-22 05:48:00,36.3,36.0,30.11,NNE,25,0.0,1.0,97,0.00,,,0.10,weatherlink.com 1.10,2013-02-22 10:48:00,
2013-02-22 06:04:00,37.5,37.0,30.11,NNE,12,0.0,2.0,97,0.00,,,0.10,weatherlink.com 1.10,2013-02-22 11:04:00,
2013-02-22 06:17:00,37.8,37.0,30.11,SSE,163,1.0,4.0,97,0.00,,,0.10,weatherlink.com 1.10,2013-02-22 11:17:00,
2013-02-22 06:33:00,37.9,37.0,30.11,ENE,72,0.0,1.0,97,0.00,,,0.10,weatherlink.com 1.10,2013-02-22 11:33:00,
2013-02-22 06:48:00,38.8,38.0,30.12,South,185,2.0,5.0,97,0.00,,,0.10,weatherlink.com 1.10,2013-02-22 11:48:00,
2013-02-22 07:03:00,40.6,39.0,30.12,SSE,158,2.0,10.0,92,0.00,,,0.10,weatherlink.com 1.10,2013-02-22 12:03:00,
2013-02-22 07:18:00,40.8,38.0,30.12,SSW,195,2.0,8.0,90,0.00,,,0.10,weatherlink.com 1.10,2013-02-22 12:18:00,
2013-02-22 07:33:00,41.5,39.0,30.13,South,174,0.0,8.0,89,0.00,,,0.10,weatherlink.com 1.10,2013-02-22 12:33:00,
2013-02-22 07:48:00,41.8,39.0,30.14,NNW,331,2.0,2.0,90,0.00,,,0.10,weatherlink.com 1.10,2013-02-22 12:48:00,
2013-02-22 08:03:00,42.4,39.0,30.14,WSW,239,0.0,5.0,89,0.00,,,0.10,weatherlink.com 1.10,2013-02-22 13:03:00,
2013-02-22 08:18:00,42.5,40.0,30.14,South,181,0.0,1.0,90,0.00,,,0.10,weatherlink.com 1.10,2013-02-22 13:18:00,
2013-02-22 08:33:00,42.5,40.0,30.14,North,7,1.0,2.0,91,0.00,,,0.10,weatherlink.com 1.10,2013-02-22 13:33:00,
2013-02-22 08:48:00,43.9,41.0,30.14,SW,230,1.0,1.0,89,0.00,,,0.10,weatherlink.com 1.10,2013-02-22 13:48:00,
2013-02-22 09:03:00,44.7,41.0,30.14,SSE,159,1.0,2.0,88,0.00,,,0.10,weatherlink.com 1.10,2013-02-22 14:03:00,
2013-02-22 09:18:00,46.3,41.0,30.14,SSE,155,3.0,6.0,82,0.00,,,0.10,weatherlink.com 1.10,2013-02-22 14:18:00,
2013-02-22 09:33:00,47.5,42.0,30.14,South,173,5.0,8.0,80,0.01,,,0.11,weatherlink.com 1.10,2013-02-22 14:33:00,
2013-02-22 09:48:00,47.5,41.0,30.13,SSE,153,10.0,12.0,79,0.01,,,0.11,weatherlink.com 1.10,2013-02-22 14:48:00,
2013-02-22 10:03:00,48.0,41.0,30.12,SE,131,8.0,15.0,77,0.01,,,0.11,weatherlink.com 1.10,2013-02-22 15:03:00,
2013-02-22 10:18:00,48.7,41.0,30.12,South,177,12.0,15.0,76,0.01,,,0.11,weatherlink.com 1.10,2013-02-22 15:18:00,
2013-02-22 10:33:00,49.6,41.0,30.12,SW,221,3.0,15.0,73,0.00,,,0.11,weatherlink.com 1.10,2013-02-22 15:33:00,
2013-02-22 10:49:00,50.1,41.0,30.12,South,184,6.0,20.0,72,0.00,,,0.11,weatherlink.com 1.10,2013-02-22 15:49:00,
2013-02-22 11:03:00,51.0,42.0,30.12,SSE,158,14.0,18.0,71,0.00,,,0.11,weatherlink.com 1.10,2013-02-22 16:03:00,
2013-02-22 11:18:00,52.2,42.0,30.12,SSW,197,5.0,13.0,69,0.00,,,0.11,weatherlink.com 1.10,2013-02-22 16:18:00,
2013-02-22 11:33:00,53.0,42.0,30.11,South,177,7.0,20.0,67,0.00,,,0.11,weatherlink.com 1.10,2013-02-22 16:33:00,
2013-02-22 11:48:00,53.7,42.0,30.11,SSW,206,12.0,20.0,66,0.00,,,0.11,weatherlink.com 1.10,2013-02-22 16:48:00,
2013-02-22 12:04:00,54.5,43.0,30.11,South,181,9.0,19.0,65,0.00,,,0.11,weatherlink.com 1.10,2013-02-22 17:04:00,
2013-02-22 12:19:00,54.6,43.0,30.11,South,172,10.0,15.0,64,0.00,,,0.11,weatherlink.com 1.10,2013-02-22 17:19:00,
2013-02-22 12:34:00,55.1,43.0,30.10,South,173,9.0,18.0,65,0.00,,,0.11,weatherlink.com 1.10,2013-02-22 17:34:00,
2013-02-22 12:49:00,55.6,43.0,30.09,SW,228,9.0,18.0,63,0.00,,,0.11,weatherlink.com 1.10,2013-02-22 17:49:00,
2013-02-22 13:04:00,55.8,44.0,30.08,South,169,8.0,18.0,64,0.00,,,0.11,weatherlink.com 1.10,2013-02-22 18:04:00,
2013-02-22 13:19:00,56.6,44.0,30.08,SE,136,8.0,17.0,64,0.00,,,0.11,weatherlink.com 1.10,2013-02-22 18:19:00,
2013-02-22 13:34:00,56.7,44.0,30.07,SSW,194,5.0,13.0,63,0.00,,,0.11,weatherlink.com 1.10,2013-02-22 18:34:00,
2013-02-22 13:49:00,56.2,44.0,30.07,SSW,211,6.0,13.0,65,0.00,,,0.11,weatherlink.com 1.10,2013-02-22 18:49:00,
2013-02-22 14:04:00,56.5,44.0,30.06,SSE,160,9.0,13.0,64,0.00,,,0.11,weatherlink.com 1.10,2013-02-22 19:04:00,
2013-02-22 14:19:00,58.3,46.0,30.06,South,188,4.0,12.0,63,0.00,,,0.11,weatherlink.com 1.10,2013-02-22 19:19:00,
2013-02-22 14:34:00,57.8,46.0,30.07,South,170,4.0,14.0,64,0.00,,,0.11,weatherlink.com 1.10,2013-02-22 19:34:00,
2013-02-22 14:49:00,57.7,45.0,30.07,South,173,2.0,11.0,64,0.00,,,0.11,weatherlink.com 1.10,2013-02-22 19:49:00,
2013-02-22 15:04:00,57.3,46.0,30.06,South,188,6.0,14.0,65,0.00,,,0.11,weatherlink.com 1.10,2013-02-22 20:04:00,
2013-02-22 15:19:00,57.2,45.0,30.06,SSE,149,4.0,8.0,65,0.00,,,0.11,weatherlink.com 1.10,2013-02-22 20:19:00,
2013-02-22 15:34:00,57.2,46.0,30.06,SW,222,3.0,9.0,66,0.00,,,0.11,weatherlink.com 1.10,2013-02-22 20:34:00,
2013-02-22 15:49:00,57.0,46.0,30.06,SSE,158,7.0,14.0,66,0.00,,,0.11,weatherlink.com 1.10,2013-02-22 20:49:00,
2013-02-22 16:04:00,56.6,45.0,30.06,SSE,167,12.0,14.0,66,0.00,,,0.11,weatherlink.com 1.10,2013-02-22 21:04:00,
2013-02-22 16:19:00,56.3,45.0,30.06,SW,225,5.0,12.0,67,0.00,,,0.11,weatherlink.com 1.10,2013-02-22 21:19:00,
2013-02-22 16:34:00,56.0,45.0,30.05,South,169,5.0,10.0,66,0.00,,,0.11,weatherlink.com 1.10,2013-02-22 21:34:00,
2013-02-22 16:49:00,55.8,45.0,30.05,South,177,6.0,10.0,67,0.00,,,0.11,weatherlink.com 1.10,2013-02-22 21:49:00,
2013-02-22 17:04:00,55.4,45.0,30.04,SSE,167,4.0,9.0,68,0.00,,,0.11,weatherlink.com 1.10,2013-02-22 22:04:00,
2013-02-22 17:19:00,55.0,45.0,30.04,South,186,4.0,7.0,69,0.00,,,0.11,weatherlink.com 1.10,2013-02-22 22:19:00,
2013-02-22 17:35:00,54.7,45.0,30.04,SSE,154,5.0,7.0,69,0.00,,,0.11,weatherlink.com 1.10,2013-02-22 22:35:00,
2013-02-22 17:49:00,54.3,45.0,30.05,South,181,4.0,8.0,70,0.00,,,0.11,weatherlink.com 1.10,2013-02-22 22:49:00,
2013-02-22 18:05:00,53.9,45.0,30.05,SSE,162,2.0,8.0,71,0.00,,,0.11,weatherlink.com 1.10,2013-02-22 23:05:00,
2013-02-22 18:19:00,53.3,44.0,30.05,SSE,161,5.0,6.0,72,0.00,,,0.11,weatherlink.com 1.10,2013-02-22 23:19:00,
2013-02-22 18:34:00,53.0,44.0,30.05,SSW,208,0.0,4.0,72,0.00,,,0.11,weatherlink.com 1.10,2013-02-22 23:34:00,
2013-02-22 18:49:00,52.5,44.0,30.05,SE,139,1.0,3.0,74,0.00,,,0.11,weatherlink.com 1.10,2013-02-22 23:49:00,
2013-02-22 19:04:00,52.5,44.0,30.05,SSE,165,0.0,4.0,73,0.00,,,0.11,weatherlink.com 1.10,2013-02-23 00:04:00,
2013-02-22 19:19:00,52.2,44.0,30.05,SSE,152,1.0,5.0,74,0.00,,,0.11,weatherlink.com 1.10,2013-02-23 00:19:00,
2013-02-22 19:35:00,51.7,44.0,30.05,South,181,1.0,3.0,75,0.00,,,0.11,weatherlink.com 1.10,2013-02-23 00:35:00,
2013-02-22 19:49:00,51.4,44.0,30.05,SE,142,1.0,4.0,76,0.00,,,0.11,weatherlink.com 1.10,2013-02-23 00:49:00,
2013-02-22 20:04:00,50.9,44.0,30.05,South,171,0.0,3.0,77,0.00,,,0.11,weatherlink.com 1.10,2013-02-23 01:04:00,
2013-02-22 20:19:00,50.6,44.0,30.06,South,181,0.0,2.0,78,0.00,,,0.11,weatherlink.com 1.10,2013-02-23 01:19:00,
2013-02-22 20:35:00,50.3,44.0,30.06,SSE,159,0.0,1.0,79,0.00,,,0.11,weatherlink.com 1.10,2013-02-23 01:35:00,
2013-02-22 20:50:00,50.0,44.0,30.06,SSE,159,0.0,0.0,79,0.00,,,0.11,weatherlink.com 1.10,2013-02-23 01:50:00,
2013-02-22 21:04:00,49.3,44.0,30.07,SSE,159,0.0,0.0,81,0.00,,,0.11,weatherlink.com 1.10,2013-02-23 02:04:00,
2013-02-22 21:19:00,50.0,44.0,30.06,SE,140,0.0,4.0,80,0.00,,,0.11,weatherlink.com 1.10,2013-02-23 02:19:00,
2013-02-22 21:34:00,49.1,44.0,30.06,SE,140,0.0,1.0,81,0.00,,,0.11,weatherlink.com 1.10,2013-02-23 02:34:00,
2013-02-22 21:49:00,49.9,44.0,30.06,SE,142,1.0,2.0,80,0.00,,,0.11,weatherlink.com 1.10,2013-02-23 02:49:00,
2013-02-22 22:04:00,50.1,44.0,30.07,SSE,159,0.0,2.0,79,0.00,,,0.11,weatherlink.com 1.10,2013-02-23 03:04:00,
2013-02-22 22:19:00,48.6,43.0,30.06,SSE,159,0.0,0.0,82,0.00,,,0.11,weatherlink.com 1.10,2013-02-23 03:19:00,
2013-02-22 22:34:00,48.1,43.0,30.05,South,181,0.0,1.0,83,0.00,,,0.11,weatherlink.com 1.10,2013-02-23 03:34:00,
2013-02-22 22:49:00,48.4,44.0,30.05,East,98,0.0,1.0,83,0.00,,,0.11,weatherlink.com 1.10,2013-02-23 03:49:00,
2013-02-22 23:04:00,48.7,43.0,30.06,East,99,0.0,1.0,82,0.00,,,0.11,weatherlink.com 1.10,2013-02-23 04:04:00,
2013-02-22 23:19:00,48.0,43.0,30.05,East,98,0.0,1.0,84,0.00,,,0.11,weatherlink.com 1.10,2013-02-23 04:19:00,
2013-02-22 23:34:00,47.6,43.0,30.05,East,99,0.0,1.0,85,0.00,,,0.11,weatherlink.com 1.10,2013-02-23 04:34:00,
2013-02-22 23:49:00,47.1,43.0,30.05,East,99,0.0,1.0,86,0.00,,,0.11,weatherlink.com 1.10,2013-02-23 04:49:00,